{"data":{"norad_id":63750,"intl_designator":"2025-088AC","name":"KUIPER-00038","alt_names":[],"object_type":"PAYLOAD","status":"ACTIVE","operator":null,"country":"US","launch_date":"2025-04-28","launch_site_code":"AFETR","launch_vehicle":null,"mission":null,"orbit_class":"UNKNOWN","rcs_meters":null,"size_class":null,"mass_kg":null,"dimensions":null,"purposes":[],"wikipedia_slug":null,"has_3d_model":false,"image_url":null,"decayed_at":null,"tle_current":{"epoch":"2026-05-25T02:26:11.821344Z","epoch_age_seconds":66577,"freshness":"FRESH","line1":"1 63750U 25088AC  26145.10152571  .00001876  00000+0  27472-3 0  9990","line2":"2 63750  51.9021 120.2105 0000652  47.6920 312.4097 14.79984553 58838","mean_motion":14.79984553,"eccentricity":6.52e-5,"inclination_deg":51.9021,"raan_deg":120.2105,"arg_perigee_deg":47.692,"mean_anomaly_deg":312.4097,"bstar":0.00027472,"rev_number":5883,"period_min":97.298312815566,"perigee_km":628.91600420779,"apogee_km":629.82978349795,"semimajor_km":7007.5098938529,"source":"CELESTRAK","updated_at":"2026-05-25T13:38:03.932049Z"}}}